Погода в Учаджи

Погода в Учаджи : погода сейчас, прогноз погоды и архив. Всё, что Вы хотите узнать о погоде в Учаджи!

Хотите узнать прогноз погоды в Учаджи? Тогда Вам сюда: Погода в Учаджи

Поиск расширенной информации на нашем сайте:

Другие новости

Новости СМИ2

Главная страница сайта

Новости сайта

03.07.2017

Напоминаем, что на нашем специализированном сайте Метеоцентр.Азия вы можете получить высокодетализированные автоматические прогнозы погоды по пунктам России, СНГ и мира в авиационном формате (включающие направление и скорость ветра, видимость, явления погоды, количество и форму облачности, нижнюю и верхнюю границу облачности).


Погода в Учаджи - сегодня

Время (UTC), дата Ветер
(°,м/с) 
Видим.   Явления Облачность Т
(°С)
Тd
(°С)
f(%) Тe
(°С)
Pmin
(гПа)
dP
(гПа)
Po
(мм)
O2
(г/м3)
Тmin Tmax R s Состояние
почвы
18 14.08.18 360 (С) 10 км    ясно 
+29.8 +4.5 20 +30  1007.3  740  268    +40       
21 14.08.18 360 (С) 10 км    ясно 
+26.8 +5.1 25 +27  1007.4  -0.1  739  271           
00 15.08.18 360 (С) 10 км    ясно 
+23.3 +5.5 32 +23  1007.5  -0.2  739  274           
03 15.08.18 020 (С) 10 км    ясно 
+26 +0.9 19 +26  1008.5  1.3  752  276           
06 15.08.18 020 (С) 10 км    ясно 
+35.5 +0.6 11 +36  1008.6  0.7  741  264  +22.5         
09 15.08.18 050 (СВ) 10 км    ясно 
+39.3 -0.5 8 +39  1007.3  -1  740  261           
12 15.08.18 020 (С) 10 км    ясно 
+40 +0.6 9 +40  1005.6  -1.6  739  260           
15 15.08.18 050 (СВ) 10 км    ясно 
+37.7 +3 12 +38  1006  0.3  739  261    +40.9       
18 15.08.18 360 (С) 10 км    ясно 
+31 +4.1 18 +31  1007.3  0.7  740  267    +40.9       
21 15.08.18 360 (С) 10 км    ясно 
+28.2 +3.2 20 +28  1007.7  0.2  740  270           
00 16.08.18 360 (С) 10 км    ясно 
+26.1 +4.5 25 +26  1007.3  -0.5  739  271           
03 16.08.18 050 (СВ) 10 км    ясно 
+27.2 +2.7 21 +27  1008.5  1.2  740  271           
06 16.08.18 050 (СВ) 10 км    ясно 
+36.6 +0.2 10 +37  1009.5  1.7  742  263  +26         
09 16.08.18 020 (С) 4000 м    ясно 
+39.8 +3.8 11 +40  1008.5  -0.8  741  260           
12 16.08.18 020 (С) 10 км    ясно 
+40 +1.3 9 +40  1007.1  -1.4  740  260           
15 16.08.18 050 (СВ) 10 км    3/0 верхняя 
[Ci sp]
+38 +3.4 12 +38  1007.3  0.1  740  261    +41       
18 16.08.18 360 (С) 10 км    ясно 
+33 +9.3 23 +34  1008.7  741  265    +41       
21 16.08.18 020 (С) 10 км    ясно 
+29.7 +8.8 27 +30  1008.1  -0.8  740  267           
00 17.08.18 020 (С) 10 км    ясно 
+26.6 +5.8 26 +27  1008.1  -0.2  740  271           
03 17.08.18 050 (СВ) 10 км    ясно 
+27.2 +5.6 25 +27  1008.8  0.7  740  270           
06 17.08.18 070 (В) 10 км    ясно 
+33.5 +6.2 18 +34  1008.2  -0.1  740  265  +25.4         
09 17.08.18 020 (С) 10 км    ясно 
+38.2 +1.9 10 +38  1007.3  -0.6  740  261           
12 17.08.18 050 (СВ) 10 км    ясно 
+38.2 +0.2 9 +38  1005.5  -1.7  739  261           
15 17.08.18 070 (В) 10 км    ясно 
+35.5 +5.8 16 +36  1004.8  -0.8  738  262    +39.2       
18 17.08.18 050 (СВ) 10 км    ясно 
+28.3 -1.7 14 +28  1006  0.6  739  270    +39.2       
Время (UTC), дата Ветер
(°,м/с) 
Видим.   Явления Облачность Т
(°С)
Тd
(°С)
f(%) Тe
(°С)
Pmin
(гПа)
dP
(гПа)
Po
(мм)
O2
(г/м3)
Тmin Tmax R s Состояние
почвы

Для получения пояснительной информации подведите курсор к названию столбца.

ПОГОДА в Учаджи - архив

Всё, что Вы хотите узнать о погоде в Учаджи - удобно и подробно!

Выберите нужную дату (начиная с 1 января 2015* года) и нажмите кнопку "Найти".
Будут отображены архивные сводки погоды по пункту Учаджи, начиная с указанной даты.


Отображать данные в формате CSV (для использования в таблицах Excel)


Внимание! Наш архив погоды предназначен исключительно для личного некоммерческого использования в познавательных целях. Если Вам необходимы официальные справки о состоянии погоды (для производственных, юридических, коммерческих и т.п. целей), обращайтесь в органы Росгидромета.

*Примечание: данная дата относится к архиву по метеостанциям СССР (Россия, СНГ, Балтия).
Архив по метеостанциям Зарубежной Европы и Азии (кроме Китая) хранится 10 дней, по другим регионам земного шара (Китай, Африка, Америка, Австралия, Океания) - 1 день.

Учаджи - район местоположения метеостанции


Название, широта, долгота, высота метеостанции:
Учаджи 38.1°ш. 62.8°д. 185 м над ур. моря [Туркменистан]

Дополнительная информация

В oтличие oт бoльшинства пoгoдных сайтoв мы публикуем пoдрoбную метеoинфoрмацию в детальнoм прoфессиoнальнoм фoрмате.

Характеристики температуры и влажнoсти вoздуха измеряются на высoте 2 м в тени вдали oт зданий и деревьев.
Скoрoсть ветра измеряется на высoте 10 м (на урoвне рoста челoвека скoрoсть ветра ниже в 1.5-2 раза). Если метеoстанция нахoдится в гoрoде или в лесу, тo скoрoсть ветра занижена на 2-4 м/с пo сравнению с oткрытым местoм. Скoрoсть ветра над акватoриями крупных рек и oзёр, а также на вершинах хoлмoв на 2-5 м/с выше, чем в oбычных услoвиях.
Атмoсфернoе давление в разных тoчках местнoсти мoжет значительнo oтличаться oт давления на метеoстанции, в зависимoсти oт услoвий рельефа (при пoдъёме на 10 м давление пoнижается примернo на 1 мм рт.ст.).